www.pogodaiklimat.ru

Погода и климат >> Архив погоды >> Россия >> Коми >> Весляна


ПОГОДА в Весляне

  • Прогноз погоды в Весляне
  • Монитор погоды в Весляне

АРХИВ ПОГОДЫ в Весляне

Время (UTC), дата Ветер
(напр.,м/с)
 
Видим.   Явления Облачность Т
(С)
Тd
(С)
f
(%)
Тe
(С)
Тes
(С)
Комфортность P
(гПа)
Po
(гПа)
Тmin
(С)
Tmax
(С)
R
(мм)
R24
(мм)
S
(см)
06 10.09 ЮЗ 2 50 км 6/0
[Ac trans Ci]
+13.1 +8.1 72 +12 +15 1028.9 1016.3
09 10.09 З 4 50 км 6/3 1500 м
[Cu hum Ci fib]
+18.3 +7.7 50 +18 +21 1028.8 1016.5
12 10.09 З 4 50 км 8/5 600 м
[Cb cap Ac trans Cs]
+19.3 +6.8 44 +20 +20 1028.5 1016.2
15 10.09 СЗ 1 50 км 5/1 1000 м
[Cu hum Ac lent Ci fib]
+17.8 +9.0 56 +19 +19 1028.3 1016.0 +20.2
18 10.09 штиль 0 40 км ясно +8.6 +7.7 94 +8 +8 1029.4 1016.6
00 11.09 штиль 0 40 км 5/0
[Ac lent]
+5.4 +4.7 95 +4 +4 1029.2 1016.3
03 11.09 С 2 50 км 9/0
[Ac As]
+8.0 +6.7 91 +6 +6 1027.7 1014.9 +4.2
06 11.09 ЮЗ 3 50 км в посл. час ливневой дождь 9/8 360 м
[Cb cap Ac As]
+12.8 +10.9 88 +11 +12 1026.1 1013.5
09 11.09 ЮЗ 3 35 км {ливн. осадки} 9/8 600 м
[Cb cap Ac As]
+18.2 +12.5 69 +19 +19 1024.7 1012.4
12 11.09 З 1 50 км {ливн. осадки} 9/8 600 м
[Cb cap Ac As]
+18.2 +11.9 67 +20 +20 1024.5 1012.2
15 11.09 СЗ 1 30 км 9/8 840 м
[Cb cap Ac cuf]
+17.2 +13.1 77 +18 +18 1023.8 1011.5 +19.8 0.5
18 11.09 штиль 0 50 км 8/5 600 м
[Sc diur, vesp Ac As]
+14.0 +11.8 87 +14 +14 1023.5 1011.1
00 12.09 Ю 1 23 км местами туман поземный 8/6 900 м
[Sc Ac trans]
+10.5 +9.9 96 +10 +10 1023.9 1011.3
03 12.09 Ю 1 700 м туман 8/0
[Ac lent Ci]
+9.0 +8.6 97 +8 +8 1023.5 1010.8 +9.1
06 12.09 Ю 2 30 км {туман} 9/0
[Ac As]
+14.2 +13.4 95 +14 +15 1023.1 1010.6
09 12.09 Ю 3 50 км 9/0
[As trans]
+20.0 +13.3 65 +22 +24 комфорт 1020.8 1008.6
12 12.09 ЮЗ 3 50 км 9/3 1000 м
[Cu med, cong As trans]
+21.8 +13.9 61 +25 +25 комфорт 1018.5 1006.5
15 12.09 Ю 2 50 км 8/3 600 м
[Sc diur, vesp Cs]
+18.6 +13.3 71 +20 +20 1016.7 1004.5 +22.5
18 12.09 ЮЗ 2 30 км зарница 9/3 330 м
[Cb cap Cs]
+15.2 +12.6 84 +15 +15 1016.1 1003.7
00 13.09 ЮЗ 2 28 км местами туман поземный 6/5 600 м
[Cb cap Ac lent]
+12.2 +10.3 88 +11 +11 1014.4 1002.0
03 13.09 Ю 2 25 км местами туман поземный 4/3 1000 м
[Cu med, cong Ac trans Ci fib]
+10.4 +8.5 88 +9 +9 1013.7 1001.2 +9.4 0.0
06 13.09 Ю 2 50 км 9/0
[Ac As]
+14.5 +9.0 70 +14 +15 1012.3 1000.0
09 13.09 Ю 3 50 км 9/0
[Ac As]
+17.2 +10.0 63 +17 +19 1010.7 998.5
12 13.09 Ю 3 50 км 8/3 1500 м
[Cu med, cong Ac trans Ci fib]
+18.2 +12.1 68 +19 +19 1009.5 997.4
15 13.09 Ю 2 50 км {ливн. осадки} 8/3 1000 м
[Cb cap Ac cuf]
+15.0 +12.8 87 +15 +15 1008.7 996.5 +18.8 1
18 13.09 Ю 2 50 км {ливн. осадки} 6/0
[Ac lent]
+12.6 +11.4 92 +12 +12 1008.8 996.5
00 14.09 ЮВ 1 40 км 5/0
[Cs]
+8.6 +8.0 96 +8 +8 1007.0 994.5
03 14.09 штиль 0 700 м туман 4/0
[Ac lent]
+9.0 +8.8 99 +8 +8 1006.0 993.5 +7.9
06 14.09 В 2 5000 м в посл. час туман {ливн. осадки} 10/10 240 м
[St]
+11.1 +10.7 97 +10 +10 1003.7 991.3
09 14.09 ЮВ 2 28 км 10/8 480 м
[Cb cap Ac As]
+15.1 +12.0 82 +15 +15 1001.9 989.7
12 14.09 ЮВ 1 50 км 9/5 600 м
[Cu Sc Ac As Ci fib]
+15.6 +11.5 77 +16 +17 999.8 987.6
15 14.09 Ю 3 8000 м слаб. ливневой дождь 10/10 570 м
[Cb cap]
+14.2 +10.4 78 +13 +13 996.8 984.7 +15.9 0.0
18 14.09 Ю 3
{10}
30 км {ливн. осадки} 8/5 600 м
[Cb cap Ac cuf]
+12.3 +10.2 87 +11 +11 995.1 982.9
00 15.09 Ю 7-12
{13}
35 км {ливн. осадки} 9/9 570 м
[Cb cap]
+8.8 +7.7 93 +4 +4 993.8 981.5
03 15.09 Ю 6-13
{14}
50 км 9/6 660 м
[Cb cap Ac As]
+9.0 +6.4 84 +5 +5 993.7 981.4 +8.4 2
06 15.09 ЮЗ 8 50 км 9/9 600 м
[St Ac trans Ci sp]
+9.6 +3.6 66 +6 +6 995.8 983.4
09 15.09 Ю 7-10
{14}
40 км 10/5 600 м
[Sc Ac As]
+10.5 +4.0 64 +7 +7 996.3 984.0
12 15.09 Ю 6-11
{14}
50 км {ливн. осадки} 10/5 300 м
[Cb cap As op]
+10.0 +5.6 74 +7 +7 995.9 989.5
15 15.09 Ю 6
{12}
14 км слаб. ливневой дождь 10/5 660 м
[Cb cap As op]
+7.6 +6.2 91 +3 +3 996.0 983.5 +11.3 1
18 15.09 ЮЗ 6
{11}
8000 м слаб. ливневой дождь 10/8 420 м
[Cb cap As op]
+6.8 +5.5 91 +2 +2 995.2 982.7
00 16.09 ЮЗ 5
{11}
30 км в посл. час ливневой дождь 9/8 400 м
[Cb cap Ac As]
+6.4 +5.3 93 +2 +2 993.6 981.2
03 16.09 Ю 5 50 км 9/5 480 м
[Cb cap Ac trans Ci sp]
+5.2 +4.3 94 0 0 993.5 981.0 +5.0 4
06 16.09 Ю 4 50 км 8/3 1000 м
[Cu hum Ac lent Ci]
+7.1 +3.6 78 +4 +5 993.6 981.2
09 16.09 Ю 3
{10}
50 км 8/5 600 м
[Cb cap Ac trans Cs]
+9.4 +2.9 64 +7 +9 993.5 981.2
12 16.09 Ю 1 17 км слаб. ливневой дождь 10/6 360 м
[Cb cap Ac As]
+8.3 +5.0 80 +8 +8 992.8 980.5
15 16.09 ЮЗ 2 18 км слаб. ливневой дождь 10/8 400 м
[Cb cap Ac As]
+7.1 +5.9 92 +5 +5 990.6 978.2 +10.3 1
18 16.09 ЮВ 1 13 км слаб. ливневой дождь 10/8 500 м
[Cb cap Ac As]
+6.8 +5.7 93 +6 +6 989.0 976.7
00 17.09 Ю 2 18 км в посл. час ливневой дождь 10/10 450 м
[Cb cap]
+7.0 +6.5 97 +5 +5 987.4 975.1

 

Местоположение метеостанции Весляна (Коми, Россия): широта 62.98 долгота 50.90 высота над уровнем моря 103 м.

В архиве по умолчанию представлена погода в Весляне за последнюю неделю. Архивные данные за месяц целиком и за предыдущие месяцы, начиная с января 2011 года, Вы можете получить, выбрав интересующий диапазон дат из раскрывающегося списка и нажав кнопку "Ввод!".


*Определитесь, кто Вы:
робот инопланетянин человек

Внимание! Время в таблицах - всемирное. Для получения местного времени необходимо прибавить поправку, которая равна 3 ч.

Смотрите также архив погоды в соседних городах и на ближайших метеорологических станциях:

Погода в Усть-Выми (Коми, Россия) (87 км)
Погода в Кослане (Коми, Россия) (112 км)
Погода в Луни (Коми, Россия) (116 км)
Погода в Яренске (Архангельская область, Россия) (128 км)
Погода в Сыктывкаре (Коми, Россия) (145 км)
Погода в Вендинге (Коми, Россия) (158 км)
Погода в Ухте (Коми, Россия) (159 км)
Погода в Кедва-Воме (Коми, Россия) (191 км)
Погода в Помоздино (Коми, Россия) (191 км)
Погода в Слободчиково (Архангельская область, Россия) (193 км)

Пояснения к столбцам:

Ветер - указаны скорость ветра в м/с - средняя за 10 мин, порывы в срок и между сроками (в фигурных скобках) и направление, откуда дует ветер: С - северный, СВ - северо-восточный, В - восточный, ЮВ - юго-восточный, Ю - южный, ЮЗ - юго-западный, З - западный, СЗ - северо-западный.
Видимость - горизонтальная дальность видимости в метрах или километрах. При видимости от 1 до 10 км при отсутствии осадков обычно наблюдается дымка, при ухудшении видимости до 1 км и менее - туман. В сухую погоду видимость может ухудшаться дымом, пылью или мглою.
Явления - указаны атмосферные явления, наблюдавшиеся в срок или в последний час перед сроком; фигурными скобками обозначены явления, наблюдавшиеся между сроками (за 1-3 часа до срока); квадратными скобками обозначены град или гололедные отложения с указанием их диаметра в мм.
Облачность - указаны через наклонную черту общая и нижняя облачность в баллах и высота нижней границы облаков в метрах; квадратными скобками обозначены формы облаков: Ci - перистые, Cs - перисто-слоистые, Cc - перисто-кучевые, Ac - высококучевые, As - высокослоистые, Sc - слоисто-кучевые, Ns - слоисто-дождевые, Cu - кучевые, Cb - кучево-дождевые. Подробнее классификацию облаков см. в Атласе облаков (PDF).
T - Температура воздуха - температура, измеренная на высоте 2 м над землей.
Td - Температура точки росы - температура, при понижении до которой содержащийся в воздухе водяной пар достигнет насыщения.
f - Относительная влажность воздуха - влажноcть воздуха, измеренная на высоте 2 м над землей.
Te - Эффективная температура - температура, которую ощущает одетый по сезону человек в тени. Характеристика душности погоды. При расчете учитывается влияние влажности воздуха и скорости ветра на теплоощущения человека.
Tes - Эффективная температура на солнце - температура, которую ощущает человек, с поправкой на солнечный нагрев. Характеристика знойности погоды. Зависит от высоты солнца над горизонтом, облачности и скорости ветра. Ночью, в пасмурную погоду, а также при ветре 12 м/с и более поправка равна нулю.
P - Атмосферное давление - приведенное к уровню моря атмосферное давление.
Po - Атмосферное давление - измеренное на уровне метеостанции атмосферное давление.
Tmin - Минимальная температура - минимум температуры воздуха на высоте 2 м над землей.
Tmax - Максимальная температура - максимум температуры воздуха на высоте 2 м над землей.
R - Количество осадков - Количество выпавших осадков за период времени, мм. При наведении курсора мыши на число - период времени, за который выпало указанное количество осадков.
R24 - Количество осадков - Количество выпавших осадков за 24 часа, мм.
S - Снежный покров - Высота снежного покрова, см. При наведении курсора мыши на число - состояние снежного покрова и степень покрытия местности в баллах.